Regional Weather Roundup
Issued by NWS

Home | Current Version | Previous Version | Graphics & Text | Print | Product List | Glossary On
Versions: 1 2 3 4 5 6 7 8 9 10 11 12 13 14 15 16 17 18 19 20 21 22 23 24 25 26 27 28 29 30 31 32 33 34 35 36 37 38 39 40 41 42 43 44 45 46 47 48 49 50
000
ASUS43 KBIS 251902
RWRND

NORTH DAKOTA REGIONAL WEATHER ROUNDUP
NATIONAL WEATHER SERVICE BISMARCK ND
200 PM CDT TUE APR 25 2017

NOTE: "FAIR" INDICATES FEW OR NO CLOUDS BELOW 12,000 FEET WITH NO
SIGNIFICANT WEATHER AND/OR OBSTRUCTIONS TO VISIBILITY.


NDZ001>003-009>011-017-252000-
NORTHWEST NORTH DAKOTA

CITY           SKY/WX    TMP DP  RH WIND       PRES   REMARKS
WILLISTON      CLOUDY    38  23  55 E12       29.97S
MINOT          CLOUDY    37  25  61 N16       29.92S
MINOT AFB      CLOUDY    37  24  60 NE17G24   29.92S
$$

NDZ018>021-031>035-040>046-252000-
SOUTHWEST NORTH DAKOTA

CITY           SKY/WX    TMP DP  RH WIND       PRES   REMARKS
BISMARCK       CLOUDY    34  26  72 NE17      29.88S
DICKINSON      CLOUDY    27  23  85 N15       29.87R WCI  15
GARRISON         N/A     34  24  67 NE13G22   29.90R
HETTINGER ARPT CLOUDY    27  25  92 N17       29.85S WCI  14
$$

NDZ004>008-012>016-024-026-027-054-252000-
NORTHEAST NORTH DAKOTA

CITY           SKY/WX    TMP DP  RH WIND       PRES   REMARKS
GRAND FORKS    CLOUDY    36  29  75 N23G30    29.84S
GRND FRKS AFB  CLOUDY    34  27  76 N22G29    29.85R
DEVILS LAKE    CLOUDY    31  26  82 N24G30    29.87F WCI  17
$$

NDZ022-023-025-028>030-036>039-047>053-252000-
SOUTHEAST NORTH DAKOTA

CITY           SKY/WX    TMP DP  RH WIND       PRES   REMARKS
FARGO          CLOUDY    38  31  76 N24G32    29.75S
JAMESTOWN      CLOUDY    32  27  81 N18G28    29.81S
$$





USA.gov is the U.S. government's official web portal to all federal, state and local government web resources and services.